User: anonymous   Login
Location: Unspecified
(0.0000°N, 0.0000°E)
Time: 00:13:28
(UTC+00:00)
Language:

DEMETER - Orbit

View from above orbital plane
View from above orbital plane
View from above satellite
View from above satellite

Ground track
Ground track

The orbit data is extracted from the following two-line orbital elements,

1 28368U 04025C   18112.48570748  .00000156  00000-0  30715-4 0  9996
2 28368  97.7405 102.2781 0001539  54.6460 305.4893 14.74353006741192
Epoch (UTC): 22 April 2018 11:39:25
Eccentricity: 0.0001539
inclination: 97.7405°
perigee height: 646 km
apogee height: 648 km
right ascension of ascending node: 102.2781°
argument of perigee: 54.6460°
revolutions per day: 14.74353006
mean anomaly at epoch: 305.4893°
orbit number at epoch: 74119

The dashed part of the orbit path shows where the satellite is in the earth's shadow,  

DLR